Regional Weather Roundup
Issued by NWS

Home | Current Version | Previous Version | Graphics & Text | Print | Product List | Glossary On
Versions: 1 2 3 4 5 6 7 8 9 10 11 12 13 14 15 16 17 18 19 20 21 22 23 24 25 26 27 28 29 30 31 32 33 34 35 36 37 38 39 40 41 42 43 44 45 46 47 48 49 50
000
ASUS44 KMEG 231110
RWRTN
TENNESSEE HOURLY STATE WEATHER ROUNDUP
NATIONAL WEATHER SERVICE MEMPHIS TN
600 AM CDT MON APR 23 2018

TNZ002-004-019-021-049-052-054-088>092-231200-
WEST TENNESSEE

CITY           SKY/WX    TMP DP  RH WIND       PRES   REMARKS
MEMPHIS INTL   CLOUDY    56  55  97 SW8       29.83R
NWS MEMPHIS      N/A     55 N/A N/A MISG        N/A
JACKSON        LGT RAIN  58  58 100 S6        29.81R
DYERSBURG      LGT RAIN  57  57 100 S3        29.78R
SOMERVILLE       N/A     57  55  94 SW12G18   29.81R FOG
COVINGTON      CLOUDY    59  57  94 SW7       29.80R
UNION CITY     CLOUDY    57  57 100 S13       29.76R
BOLIVAR        CLOUDY    59  57  94 S9G18     29.82R
PARIS          CLOUDY    57  57 100 SE12      29.81R
HUNTINGDON     CLOUDY    59  57  94 S8        29.80R
LEXINGTON      CLOUDY    59  57  94 SE6       29.83R
SELMER         CLOUDY    59  57  94 VRB6      29.83R
SAVANNAH       CLOUDY    59  59 100 S5        29.84R
$$

TNZ008-025-027-028-033-062-065-066-231200-
NORTH MIDDLE TENNESSEE

CITY           SKY/WX    TMP DP  RH WIND       PRES   REMARKS
NASHVILLE      CLOUDY    59  57  93 SE10      29.90R
PORTLAND       CLOUDY    55  55 100 VRB6      29.92R
CLARKSVILLE    LGT RAIN  58  55  90 SW5       29.87R FOG
SMYRNA         LGT RAIN  58  57  97 SE8       29.92R
COOKEVILLE     CLOUDY    55  54  94 SE9G17    29.94R
LIVINGSTON     CLOUDY    55  52  88 SE10G18   29.97S
GALLATIN       CLOUDY    57  55  94 SE3       29.95R
CROSSVILLE     LGT RAIN  52  50  93 SE9G17    29.99R
ROCKWOOD       CLOUDY    52  52 100 E9        30.00S FOG
$$

TNZ061-075-076-078-094-096-097-231200-
SOUTH MIDDLE TENNESSEE

CITY           SKY/WX    TMP DP  RH WIND       PRES   REMARKS
LEWISBURG      CLOUDY    59  57  94 S6        29.89R
TULLAHOMA      CLOUDY    59  55  88 S7        29.91R
WINCHESTER     CLOUDY    59  55  88 SE9       29.91R
MCMINNVILLE    CLOUDY    59  54  82 E7        29.92S
COLUMBIA       CLOUDY    59  59 100 SE5       29.87R
SHELBYVILLE    MOCLDY    59  57  94 SE8       29.90R FOG
$$

TNZ017-018-042-046-047-231200-
NORTHEAST TENNESSEE

CITY           SKY/WX    TMP DP  RH WIND       PRES   REMARKS
TRI CITIES     LGT RAIN  56  50  80 E13G20    30.14R
ELIZABETHTON   CLOUDY    57  48  72 E9G26     30.16S
$$

TNZ012-013-036-069-073-074-231200-
CENTRAL EAST TENNESSEE

CITY           SKY/WX    TMP DP  RH WIND       PRES   REMARKS
KNOXVILLE      LGT RAIN  55  52  89 NE12      29.96F
OAK RIDGE      RAIN      54  54 100 VRB5      30.01S
DOWNTOWN KNOXV CLOUDY    55  54  94 VRB6G12   29.99F
GATLINBURG     CLOUDY    59  50  72 CALM      29.98F
MORRISTOWN     MOCLDY    54  52  94 E16G25    30.04F
JACKSBORO      CLOUDY    54  52  94 NE6       30.07S
$$

TNZ083-085-099-231200-
SOUTHEAST TENNESSEE

CITY           SKY/WX    TMP DP  RH WIND       PRES   REMARKS
CHATTANOOGA    LGT RAIN  57  55  93 SE8       29.96S
DAYTON         CLOUDY    55  55 100 CALM      29.98S FOG
$$

SKY/WX REPORTED AS FAIR MEANS FEW OR NO CLOUDS BELOW
12 THOUSAND FEET.





USA.gov is the U.S. government's official web portal to all federal, state and local government web resources and services.